Barter Island, AK

2:04 AM AKDT on July 24, 2017 (GMT -0800)
Barter Island LRRS

Weather History for PABA - October, 2013

Change the Weather History Date:

Sunday, October 13, 2013

  Actual Average Record
Temperature  
Mean Temperature 26 °F -  
Max Temperature 33 °F 22 °F 45 °F (2006)
Min Temperature 21 °F 14 °F 0 °F (1997)
Degree Days  
Heating Degree Days 38    
Moisture  
Dew Point 26 °F    
Average Humidity 95    
Maximum Humidity 100    
Minimum Humidity 88    
Precipitation  
Precipitation 0.00 in - - ()
Sea Level Pressure  
Sea Level Pressure 29.76 in    
Wind  
Wind Speed 14 mph (ESE)    
Max Wind Speed 28 mph    
Max Gust Speed 26 mph    
Visibility 5 miles    
Events Fog , Snow    
Averages and records for this station are not official NWS values.
T = Trace of Precipitation, MM = Missing Value Source: NWS Daily Summary

Daily Weather History Graph

Daily Weather History Graph

Search for Another Location

Airport or City:

Trip Planner

Search our weather history database for the weather conditions in past years. The results will help you decide how hot, cold, wet, or windy it might be!

Date:

Astronomy

Oct. 13, 2013 Rise Set
Actual Time 8:41 AM AKDT 5:57 PM AKDT
Civil Twilight 7:38 AM AKDT 7:00 PM AKDT
Nautical Twilight 6:27 AM AKDT 8:11 PM AKDT
Astronomical Twilight 5:12 AM AKDT 9:25 PM AKDT
Moon 5:24 PM AKDT (10/13) 12:00 AM AKDT (10/13)
Length of Visible Light 11h 22m
Length of Day
9h 16m
Waxing Gibbous, 71% of the Moon is Illuminated
Oct 13
Waxing Gibbous
Oct 18
Full
Oct 26
Last Quarter
Nov 3
New
Nov 9
First Quarter

Hourly Weather History & Observations

Time (AKDT) Temp. Windchill Dew Point Humidity Pressure Visibility Wind Dir Wind Speed Gust Speed Precip Events Conditions
12:01 AM 24.1 °F 12.0 °F 23.0 °F 96% 29.86 in 10.0 mi ESE 13.8 mph - N/A   Clear
12:12 AM 24.8 °F 14.0 °F 23.0 °F 93% 29.87 in 10.0 mi ESE 11.5 mph - N/A   Scattered Clouds
12:20 AM 24.8 °F 13.4 °F 23.0 °F 93% 29.87 in 5.0 mi ESE 12.7 mph - N/A   Mostly Cloudy
12:32 AM 23.0 °F 10.1 °F 21.2 °F 93% 29.87 in 2.5 mi ESE 15.0 mph - N/A   Overcast
12:41 AM 23.0 °F 11.7 °F 21.2 °F 93% 29.87 in 7.0 mi ESE 11.5 mph - N/A   Overcast
1:01 AM 23.0 °F 12.4 °F 21.0 °F 92% 29.87 in 10.0 mi ESE 10.4 mph - N/A   Overcast
1:13 AM 23.0 °F 12.4 °F 21.2 °F 93% 29.87 in 1.8 mi ESE 10.4 mph - N/A   Overcast
1:28 AM 21.2 °F 10.1 °F 21.2 °F 100% 29.87 in 1.0 mi ESE 10.4 mph - 0.00 in Snow Light Snow
2:01 AM 21.2 °F 9.5 °F 21.2 °F 100% 29.86 in 0.8 mi ESE 11.5 mph - 0.00 in Snow Light Snow
2:39 AM 23.0 °F 11.7 °F 21.2 °F 93% 29.87 in 1.0 mi ESE 11.5 mph - 0.00 in Snow Light Snow
3:01 AM 24.1 °F 13.1 °F 23.0 °F 96% 29.88 in 1.0 mi ESE 11.5 mph - 0.00 in Snow Light Snow
3:12 AM 24.8 °F 14.6 °F 23.0 °F 93% 29.88 in 0.8 mi ESE 10.4 mph - 0.00 in Snow Light Snow
4:01 AM 24.1 °F 13.7 °F 23.0 °F 96% 29.87 in 0.8 mi ESE 10.4 mph - 0.00 in Snow Light Snow
4:09 AM 24.8 °F 14.6 °F 23.0 °F 93% 29.87 in 1.0 mi ESE 10.4 mph - 0.00 in Snow Light Snow
5:01 AM 25.0 °F 14.8 °F 24.1 °F 96% 29.85 in 1.0 mi ESE 10.4 mph - 0.00 in Snow Light Snow
5:31 AM 26.6 °F 20.0 °F 24.8 °F 93% 29.86 in 0.8 mi ESE 5.8 mph - 0.00 in Snow Light Snow
5:40 AM 24.8 °F 19.1 °F 24.8 °F 100% 29.86 in 0.5 mi ESE 4.6 mph - 0.00 in Fog , Snow Light Snow
6:20 AM 24.8 °F 15.3 °F 23.0 °F 93% 29.86 in 0.8 mi ESE 9.2 mph - N/A Snow Light Snow
6:41 AM 24.8 °F 16.1 °F 24.8 °F 100% 29.85 in 0.8 mi ESE 8.1 mph - N/A Snow Light Snow
7:01 AM 24.8 °F 15.3 °F 24.8 °F 100% 29.84 in 1.0 mi ESE 9.2 mph - N/A Snow Light Snow
8:01 AM 28.4 °F 19.1 °F 26.6 °F 93% 29.83 in 10.0 mi East 10.4 mph 18.4 mph N/A   Mostly Cloudy
8:16 AM 28.4 °F 19.1 °F 28.4 °F 100% 29.83 in 10.0 mi East 10.4 mph - N/A   Scattered Clouds
9:01 AM 28.9 °F 17.3 °F 28.0 °F 96% 29.82 in 9.0 mi East 16.1 mph 20.7 mph N/A   Clear
10:01 AM 30.0 °F 18.7 °F 28.9 °F 96% 29.80 in 8.0 mi East 16.1 mph - N/A   Clear
11:01 AM 30.0 °F 19.5 °F 28.9 °F 96% 29.79 in 8.0 mi East 13.8 mph - 0.00 in Snow Light Snow
12:01 PM 30.2 °F 17.4 °F 28.4 °F 93% 29.76 in 8.0 mi East 20.7 mph - 0.00 in   Partly Cloudy
12:07 PM 30.0 °F 17.5 °F 28.9 °F 96% 29.76 in 8.0 mi East 19.6 mph 26.5 mph 0.00 in   Scattered Clouds
12:15 PM 30.2 °F 18.1 °F 28.4 °F 93% 29.75 in 6.0 mi East 18.4 mph 25.3 mph N/A   Mostly Cloudy
12:29 PM 30.2 °F 17.1 °F 30.2 °F 100% 29.74 in 3.0 mi East 21.9 mph - N/A   Overcast
12:51 PM 30.2 °F 17.8 °F 30.2 °F 100% 29.73 in 8.0 mi East 19.6 mph - N/A   Scattered Clouds
1:01 PM 30.9 °F 18.4 °F 30.0 °F 96% 29.73 in 8.0 mi East 20.7 mph - N/A   Partly Cloudy
1:14 PM 30.2 °F 17.4 °F 30.2 °F 100% 29.72 in 7.0 mi East 20.7 mph - N/A   Mostly Cloudy
2:01 PM 30.9 °F 17.8 °F 30.9 °F 100% 29.68 in 6.0 mi East 23.0 mph - 0.00 in   Mostly Cloudy
2:09 PM 30.2 °F 16.8 °F 30.2 °F 100% 29.67 in 6.0 mi East 23.0 mph - N/A   Scattered Clouds
3:01 PM 30.9 °F 19.8 °F 30.0 °F 96% 29.65 in 5.0 mi East 16.1 mph - N/A   Clear
4:01 PM 30.9 °F 18.7 °F 30.0 °F 96% 29.62 in 6.0 mi East 19.6 mph - N/A   Clear
5:01 PM 30.9 °F 19.1 °F 28.9 °F 92% 29.57 in 6.0 mi East 18.4 mph - 0.00 in   Clear
6:01 PM 30.9 °F 17.2 °F 28.9 °F 92% 29.53 in 6.0 mi ESE 25.3 mph - N/A   Clear
7:01 PM 30.9 °F 18.1 °F 30.0 °F 96% 29.50 in 6.0 mi East 21.9 mph - N/A   Clear
8:01 PM 32.0 °F 18.6 °F 30.0 °F 92% 29.47 in 7.0 mi ESE 25.3 mph - N/A   Scattered Clouds
9:01 PM 32.0 °F 18.1 °F 30.0 °F 92% 29.43 in 7.0 mi ESE 27.6 mph - N/A   Overcast
10:01 PM 32.0 °F 19.8 °F 30.0 °F 92% 29.42 in 7.0 mi ESE 20.7 mph - N/A   Overcast
11:01 PM 32.0 °F 19.8 °F 28.9 °F 88% 29.38 in 8.0 mi ESE 20.7 mph - N/A   Mostly Cloudy